Regional Weather Roundup
Issued by NWS

Home | Current Version | Previous Version | Graphics & Text | Print | Product List | Glossary On
Versions: 1 2 3 4 5 6 7 8 9 10 11 12 13 14 15 16 17 18 19 20 21 22 23 24 25 26 27 28 29 30 31 32 33 34 35 36 37 38 39 40 41 42 43 44 45 46 47 48 49 50
281
ASUS45 KCYS 200410
RWRWY

WYOMING REGIONAL WEATHER ROUNDUP
NATIONAL WEATHER SERVICE CHEYENNE WY
900 PM MST THU JAN 19 2017

NOTE:  "FAIR" INDICATES FEW OR NO CLOUDS BELOW 12,000 FEET
WITH NO SIGNIFICANT WEATHER AND/OR OBSTRUCTIONS TO VISIBILITY.

WYZ001-200500-
YELLOWSTONE NATIONAL PARK

CITY           SKY/WX    TMP DP  RH WIND       PRES   REMARKS
LK YELLOWSTONE   N/A     23  21  92 CALM      29.62F
W YELLOWSTONE  NOT AVBL

$$
WYZ002>013-054>058-071-098>099-200500-
NORTHERN WYOMING

CITY           SKY/WX    TMP DP  RH WIND       PRES   REMARKS
JACKSON        CLOUDY    28  27  93 CALM      29.62F
CODY           MOCLDY    39  23  52 W8        29.53F WCI  33
GREYBULL       MOCLDY    24  18  77 SE3       29.53F
WORLAND        CLOUDY    25  21  85 E6        29.53F WCI  18
SHERIDAN       FAIR      28  21  75 SW6       29.50S WCI  22
BUFFALO        FAIR      35  20  54 W3        29.51S
GILLETTE       FAIR      33  25  72 W13       29.48F WCI  24
HULETT         FAIR      30  23  74 S8        29.47F WCI  23
NEWCASTLE      FAIR      28  21  74 NE7       29.51S WCI  21

$$
WYZ014>020-022>026-101>103-200500-
CENTRAL WYOMING

CITY           SKY/WX    TMP DP  RH WIND       PRES   REMARKS
BIG PINEY      CLOUDY    13  11  92 CALM      29.65S
PINEDALE       FAIR      12  10  92 SE3       29.64F
DUBOIS         NOT AVBL
LANDER         FAIR      22  15  75 CALM      29.54S
RIVERTON       MOCLDY    21  14  74 NW6       29.55F WCI  13
CASPER         FAIR      32  24  72 SW14G25   29.55F WCI  22
DOUGLAS        FAIR      34  21  59 W14       29.51F WCI  25

$$
WYZ021-027>030-104>119-200500-
SOUTHERN WYOMING

CITY           SKY/WX    TMP DP  RH WIND       PRES   REMARKS
EVANSTON       LGT SNOW  27  24  89 W3        29.66S FOG
ROCK SPRINGS   CLOUDY    20  18  92 SW7       29.64F FOG     WCI  11
RAWLINS        CLOUDY    29  22  75 W12G20    29.62F WCI  19
LARAMIE        FAIR      16  12  84 CALM      29.57S
CHEYENNE       FAIR      33  19  56 W16       29.52F WCI  23
TORRINGTON     FAIR      36  21  54 W5        29.50S WCI  32

$$




USA.gov is the U.S. government's official web portal to all federal, state and local government web resources and services.